Weather History for Douglas, WY

Change the Weather History Date:

Thursday, January 10, 2013

  Actual Average Record
Temperature  
Mean Temperature 38 °F 25 °F  
Max Temperature 54 °F 39 °F 60 °F (1990)
Min Temperature 21 °F 11 °F -16 °F (2011)
Degree Days  
Heating Degree Days 27 40  
Month to date heating degree days 397 402  
Since 1 July heating degree days 3118 3491  
Cooling Degree Days 0 0  
Month to date cooling degree days 0 0  
Year to date cooling degree days 0 0  
Moisture  
Dew Point 14 °F    
Average Humidity 40    
Maximum Humidity 63    
Minimum Humidity 17    
Precipitation  
Precipitation 0.00 in 0.01 in 0.01 in (2012)
Month to date precipitation T 0.10  
Year to date precipitation T 0.10  
Sea Level Pressure  
Sea Level Pressure 29.63 in    
Wind  
Wind Speed 8 mph (SW)    
Max Wind Speed 25 mph    
Max Gust Speed 32 mph    
Visibility 10 miles    
Events      
T = Trace of Precipitation, MM = Missing Value Source: NWS Daily Summary

Daily Weather History Graph

Daily Weather History Graph

Search for Another Location

Airport:

Trip Planner

Search our weather history database for the weather conditions in past years. The results will help you decide how hot, cold, wet, or windy it might be!

Date:

Astronomy

Jan. 10, 2013 Rise Set
Actual Time 7:31 AM MST 4:47 PM MST
Civil Twilight 6:59 AM MST 5:19 PM MST
Nautical Twilight 6:24 AM MST 5:54 PM MST
Astronomical Twilight 5:50 AM MST 6:28 PM MST
Moon 6:13 AM MST (1/10) 3:58 PM MST (1/10)
Length of Visible Light 10h 19m
Length of Day
9h 16m
Waning Crescent, 2% of the Moon is Illuminated
Jan 10
Waning Crescent
Jan 11
New
Jan 18
First Quarter
Jan 26
Full
Feb 3
Last Quarter

Hourly Weather History & Observations

Time (MST) Temp. Windchill Dew Point Humidity Pressure Visibility Wind Dir Wind Speed Gust Speed Precip Events Conditions
12:53 AM 28.9 °F 25.2 °F 15.1 °F 56% 29.84 in 10.0 mi ESE 3.5 mph - N/A   Clear
1:53 AM 26.1 °F 21.9 °F 14.0 °F 60% 29.83 in 10.0 mi East 3.5 mph - N/A   Clear
2:53 AM 32.0 °F 24.2 °F 15.1 °F 50% 29.79 in 10.0 mi SE 9.2 mph - N/A   Clear
3:53 AM 28.0 °F 17.0 °F 14.0 °F 56% 29.78 in 10.0 mi ESE 13.8 mph - N/A   Clear
4:53 AM 27.0 °F - 12.9 °F 56% 29.80 in 10.0 mi Calm Calm - N/A   Clear
5:53 AM 30.9 °F 22.8 °F 14.0 °F 50% 29.74 in 10.0 mi ENE 9.2 mph - N/A   Clear
6:53 AM 33.1 °F 25.5 °F 14.0 °F 46% 29.73 in 10.0 mi ESE 9.2 mph - N/A   Clear
7:53 AM 30.9 °F 25.2 °F 15.1 °F 52% 29.75 in 10.0 mi ESE 5.8 mph 18.4 mph N/A   Clear
8:53 AM 28.9 °F 25.2 °F 17.1 °F 61% 29.73 in 10.0 mi SW 3.5 mph - N/A   Clear
9:53 AM 30.0 °F - 17.1 °F 59% 29.69 in 10.0 mi Calm Calm - N/A   Clear
10:53 AM 35.1 °F - 17.1 °F 48% 29.68 in 10.0 mi Calm Calm - N/A   Clear
11:53 AM 48.0 °F - 10.0 °F 22% 29.59 in 10.0 mi West 11.5 mph - N/A   Clear
12:53 PM 51.1 °F - 8.1 °F 18% 29.57 in 10.0 mi SSW 16.1 mph 21.9 mph N/A   Clear
1:53 PM 50.0 °F - 10.0 °F 20% 29.57 in 10.0 mi SSW 13.8 mph - N/A   Clear
2:53 PM 50.0 °F - 9.0 °F 19% 29.54 in 10.0 mi WSW 6.9 mph - N/A   Clear
3:53 PM 54.0 °F - 10.0 °F 17% 29.54 in 10.0 mi SW 12.7 mph - N/A   Clear
4:53 PM 50.0 °F - 16.0 °F 26% 29.53 in 10.0 mi SW 24.2 mph 32.2 mph N/A   Clear
5:53 PM 44.1 °F 39.0 °F 16.0 °F 32% 29.53 in 10.0 mi SW 9.2 mph - N/A   Clear
6:53 PM 45.0 °F 40.6 °F 15.1 °F 30% 29.51 in 10.0 mi WNW 8.1 mph - N/A   Mostly Cloudy
7:53 PM 37.9 °F 30.9 °F 16.0 °F 41% 29.52 in 10.0 mi West 10.4 mph - N/A   Scattered Clouds
8:53 PM 34.0 °F 26.6 °F 15.1 °F 46% 29.52 in 10.0 mi West 9.2 mph - N/A   Clear
9:53 PM 30.9 °F 26.2 °F 15.1 °F 52% 29.52 in 10.0 mi WNW 4.6 mph - N/A   Clear
10:53 PM 30.0 °F 26.5 °F 15.1 °F 54% 29.49 in 10.0 mi WNW 3.5 mph - N/A   Clear
11:53 PM 28.0 °F 22.8 °F 15.1 °F 58% 29.43 in 10.0 mi WNW 4.6 mph - N/A   Clear